Weather Roundup
Issued by NWS Corpus Christi, TX

Home | Current Version | Previous Version | Text Only | Print | Product List | Glossary On
Versions: 1 2 3 4 5 6 7 8 9 10 11 12 13 14 15 16 17 18 19 20 21 22 23 24 25 26 27 28 29 30 31 32 33 34 35 36 37 38 39 40 41 42 43 44 45 46 47 48 49 50
000
ASUS44 KCRP 310210
HRRCRP

SOUTH TEXAS REGIONAL WEATHER ROUNDUP
NATIONAL WEATHER SERVICE CORPUS CHRISTI TX
900 PM CDT THU JUL 30 2015


TXZ229>244-310300-
...CORPUS CHRISTI AREA OBSERVATIONS...

CITY           SKY/WX    TMP DP  RH WIND       PRES   REMARKS
CORPUS CHRISTI MOCLDY    86  72  62 SE10      29.99R HX  92
NAS CORPUS CHR MOCLDY    82  73  74 S9        29.99R
ROCKPORT       MOCLDY    85  75  72 VRB7      29.98R HX  93
KINGSVILLE NAS MOCLDY    83  77  82 SE7       29.99R HX  92
ALICE          CLEAR     84  67  56 SE8       29.99R
FALFURRIAS     MOCLDY    85  71  62 SE5       29.98S HX  90
$$

...VICTORIA AREA OBSERVATIONS...

CITY           SKY/WX    TMP DP  RH WIND       PRES   REMARKS
VICTORIA       PTCLDY    81  77  88 S5        29.99R
BEEVILLE       FAIR      86  70  58 S6        29.99R HX  90
PLEASANTON     PTCLDY    90  64  42 E3        29.98R HX  91
SAN ANTONIO    MOCLDY    90  65  43 SE9       30.01R HX  92
$$

...LAREDO AREA OBSERVATIONS...

CITY           SKY/WX    TMP DP  RH WIND       PRES   REMARKS
LAREDO         CLEAR     94  61  33 E9        29.98R HX  94
COTULLA        PTCLDY    94  63  35 E7        29.98R HX  95
DEL RIO        CLEAR     93  54  26 SE10      29.98R HX  91
MCALLEN        CLEAR     91  71  51 SE13      29.98R HX  97
HEBBRONVILLE     N/A     89  63  41 E9        30.01R
$$

...OTHER TEXAS OBSERVATIONS...

CITY           SKY/WX    TMP DP  RH WIND       PRES   REMARKS
BROWNSVILLE    CLEAR     82  75  79 SE8       29.99S
HOUSTON        CLOUDY    83  78  85 CALM      30.00R HX  93
COL. STATION   MOCLDY    86  73  65 S3        30.00R HX  93
AUSTIN         MOCLDY    86  67  52 SE5       29.99R
WACO           CLEAR     92  65  40 E5        29.99R HX  94
FORT WORTH     PTCLDY    95  62  33 E6        30.00R HX  96
WICHITA FALLS  CLEAR     90  67  46 E8        30.03R HX  93
LUBBOCK        MOCLDY    78  67  68 NE10      30.19R
EL PASO        CLOUDY    80  61  52 VRB3      30.15S
$$

...MARINE OBSERVATIONS...

STATION/POSITION TIME  SKY/WX   TEMP    WIND        PRES    VSBY  WAVE   SWELL
                                AIR SEA DIR/SP/G                  HT/PER HT/PER
                 (UTC)          (F)     (DEG/KT/KT) (MB)    (MI)  (FT/S) (FT/S)
PORT ARANSAS     0200            83 88  160/ 11/ 12 1016.5R
BUOY 90 E PORT A 0150            85 87  220/  8/  8 1015.7R         1/ 6   2/ 6
BUOY 45 SE BAFFI 0150            85 87  170/  6/  8 1015.5R         1/ 6   2/ 6
BUOY 200 E PT IS 0150            86 87  330/ 10/ 12 1015.9S         1/ 5   2/ 5
BUOY 15 E GALVES 0150            87 87  250/  6/  8 1015.4R         1/ 6
$$


USA.gov is the U.S. government's official web portal to all federal, state and local government web resources and services.